Year,Month,Day,Hour,Minute,Value (Times are PST for temperature in C)
2012,06,20,00,00,9.10
2012,06,20,00,01,9.10
2012,06,20,00,02,9.10
2012,06,20,00,03,9.10
2012,06,20,00,04,9.10
2012,06,20,00,05,9.10
2012,06,20,00,06,9.00
2012,06,20,00,07,9.00
2012,06,20,00,08,9.00
2012,06,20,00,09,9.00
2012,06,20,00,10,9.00
2012,06,20,00,11,9.00
2012,06,20,00,12,9.00
2012,06,20,00,13,9.00
2012,06,20,00,14,9.00
2012,06,20,00,15,8.90
2012,06,20,00,16,8.90
2012,06,20,00,17,8.90
2012,06,20,00,18,8.90
2012,06,20,00,19,8.90
2012,06,20,00,20,8.90
2012,06,20,00,21,9.00
2012,06,20,00,22,9.00
2012,06,20,00,23,9.00
2012,06,20,00,24,9.00
2012,06,20,00,25,9.00
2012,06,20,00,26,9.00
2012,06,20,00,27,9.00
2012,06,20,00,28,9.00
2012,06,20,00,29,9.00
2012,06,20,00,30,9.00
2012,06,20,00,31,9.00
2012,06,20,00,32,8.90
2012,06,20,00,33,8.80
2012,06,20,00,34,8.80
2012,06,20,00,35,8.70
2012,06,20,00,36,8.70
2012,06,20,00,37,8.70
2012,06,20,00,38,8.60
2012,06,20,00,39,8.60
2012,06,20,00,40,8.50
2012,06,20,00,41,8.50
2012,06,20,00,42,8.50
2012,06,20,00,43,8.50
2012,06,20,00,44,8.50
2012,06,20,00,45,8.50
2012,06,20,00,46,8.50
2012,06,20,00,47,8.50
2012,06,20,00,48,8.50
2012,06,20,00,49,8.50
2012,06,20,00,50,8.50
2012,06,20,00,51,8.50
2012,06,20,00,52,8.40
2012,06,20,00,53,8.40
2012,06,20,00,54,8.40
2012,06,20,00,55,8.40
2012,06,20,00,56,8.40
2012,06,20,00,57,8.40
2012,06,20,00,58,8.40
2012,06,20,00,59,8.40
2012,06,20,01,00,8.40
2012,06,20,01,01,8.40
2012,06,20,01,02,8.40
2012,06,20,01,03,8.40
2012,06,20,01,04,8.50
2012,06,20,01,05,8.50
2012,06,20,01,06,8.50
2012,06,20,01,07,8.50
2012,06,20,01,08,8.60
2012,06,20,01,09,8.60
2012,06,20,01,10,8.50
2012,06,20,01,11,8.50
2012,06,20,01,12,8.50
2012,06,20,01,13,8.50
2012,06,20,01,14,8.50
2012,06,20,01,15,8.50
2012,06,20,01,16,8.50
2012,06,20,01,17,8.40
2012,06,20,01,18,8.40
2012,06,20,01,19,8.40
2012,06,20,01,20,8.30
2012,06,20,01,21,8.30
2012,06,20,01,22,8.30
2012,06,20,01,23,8.30
2012,06,20,01,24,8.30
2012,06,20,01,25,8.30
2012,06,20,01,26,8.30
2012,06,20,01,27,8.20
2012,06,20,01,28,8.20
2012,06,20,01,29,8.20
2012,06,20,01,30,8.20
2012,06,20,01,31,8.20
2012,06,20,01,32,8.20
2012,06,20,01,33,8.20
2012,06,20,01,34,8.20
2012,06,20,01,35,8.20
2012,06,20,01,36,8.20
2012,06,20,01,37,8.20
2012,06,20,01,38,8.20
2012,06,20,01,39,8.20
2012,06,20,01,40,8.20
2012,06,20,01,41,8.20
2012,06,20,01,42,8.30
2012,06,20,01,43,8.30
2012,06,20,01,44,8.30
2012,06,20,01,45,8.30
2012,06,20,01,46,8.30
2012,06,20,01,47,8.30
2012,06,20,01,48,8.30
2012,06,20,01,49,8.30
2012,06,20,01,50,8.20
2012,06,20,01,51,8.20
2012,06,20,01,52,8.20
2012,06,20,01,53,8.20
2012,06,20,01,54,8.20
2012,06,20,01,55,8.20
2012,06,20,01,56,8.20
2012,06,20,01,57,8.20
2012,06,20,01,58,8.20
2012,06,20,01,59,8.20
2012,06,20,02,00,8.10
2012,06,20,02,01,8.10
2012,06,20,02,02,8.10
2012,06,20,02,03,8.10
2012,06,20,02,04,8.10
2012,06,20,02,05,8.10
2012,06,20,02,06,8.00
2012,06,20,02,07,8.00
2012,06,20,02,08,8.00
2012,06,20,02,09,8.00
2012,06,20,02,10,8.00
2012,06,20,02,11,7.90
2012,06,20,02,12,7.90
2012,06,20,02,13,7.90
2012,06,20,02,14,7.90
2012,06,20,02,15,7.90
2012,06,20,02,16,7.90
2012,06,20,02,17,7.90
2012,06,20,02,18,7.90
2012,06,20,02,19,7.90
2012,06,20,02,20,8.00
2012,06,20,02,21,8.00
2012,06,20,02,22,8.00
2012,06,20,02,23,8.00
2012,06,20,02,24,8.00
2012,06,20,02,25,8.00
2012,06,20,02,26,8.00
2012,06,20,02,27,8.00
2012,06,20,02,28,8.00
2012,06,20,02,29,8.00
2012,06,20,02,30,8.10
2012,06,20,02,31,8.10
2012,06,20,02,32,8.10
2012,06,20,02,33,8.10
2012,06,20,02,34,8.10
2012,06,20,02,35,8.10
2012,06,20,02,36,8.10
2012,06,20,02,37,8.10
2012,06,20,02,38,8.10
2012,06,20,02,39,8.10
2012,06,20,02,40,8.20
2012,06,20,02,41,8.20
2012,06,20,02,42,8.20
2012,06,20,02,43,8.10
2012,06,20,02,44,8.10
2012,06,20,02,45,8.10
2012,06,20,02,46,8.10
2012,06,20,02,47,8.10
2012,06,20,02,48,8.10
2012,06,20,02,49,8.10
2012,06,20,02,50,8.10
2012,06,20,02,51,8.00
2012,06,20,02,52,8.00
2012,06,20,02,53,8.00
2012,06,20,02,54,8.00
2012,06,20,02,55,7.90
2012,06,20,02,56,7.90
2012,06,20,02,57,7.90
2012,06,20,02,58,7.90
2012,06,20,02,59,7.90
2012,06,20,03,00,7.90
2012,06,20,03,01,7.80
2012,06,20,03,02,7.80
2012,06,20,03,03,7.80
2012,06,20,03,04,7.80
2012,06,20,03,05,7.80
2012,06,20,03,06,7.80
2012,06,20,03,07,7.80
2012,06,20,03,08,7.80
2012,06,20,03,09,7.80
2012,06,20,03,10,7.80
2012,06,20,03,11,7.80
2012,06,20,03,12,7.80
2012,06,20,03,13,7.80
2012,06,20,03,14,7.80
2012,06,20,03,15,7.80
2012,06,20,03,16,7.80
2012,06,20,03,17,7.80
2012,06,20,03,18,7.80
2012,06,20,03,19,7.80
2012,06,20,03,20,7.80
2012,06,20,03,21,7.80
2012,06,20,03,22,7.80
2012,06,20,03,23,7.80
2012,06,20,03,24,7.80
2012,06,20,03,25,7.80
2012,06,20,03,26,7.80
2012,06,20,03,27,7.80
2012,06,20,03,28,7.80
2012,06,20,03,29,7.80
2012,06,20,03,30,7.80
2012,06,20,03,31,7.80
2012,06,20,03,32,7.80
2012,06,20,03,33,7.80
2012,06,20,03,34,7.80
2012,06,20,03,35,7.80
2012,06,20,03,36,7.80
2012,06,20,03,37,7.80
2012,06,20,03,38,7.90
2012,06,20,03,39,7.90
2012,06,20,03,40,7.90
2012,06,20,03,41,8.00
2012,06,20,03,42,8.00
2012,06,20,03,43,8.00
2012,06,20,03,44,8.00
2012,06,20,03,45,7.90
2012,06,20,03,46,7.90
2012,06,20,03,47,7.90
2012,06,20,03,48,7.90
2012,06,20,03,49,7.80
2012,06,20,03,50,7.80
2012,06,20,03,51,7.80
2012,06,20,03,52,7.80
2012,06,20,03,53,7.80
2012,06,20,03,54,7.70
2012,06,20,03,55,7.70
2012,06,20,03,56,7.70
2012,06,20,03,57,7.70
2012,06,20,03,58,7.70
2012,06,20,03,59,7.70
2012,06,20,04,00,7.60
2012,06,20,04,01,7.60
2012,06,20,04,02,7.60
2012,06,20,04,03,7.60
2012,06,20,04,04,7.60
2012,06,20,04,05,7.50
2012,06,20,04,06,7.50
2012,06,20,04,07,7.50
2012,06,20,04,08,7.50
2012,06,20,04,09,7.50
2012,06,20,04,10,7.50
2012,06,20,04,11,7.50
2012,06,20,04,12,7.50
2012,06,20,04,13,7.50
2012,06,20,04,14,7.50
2012,06,20,04,15,7.50
2012,06,20,04,16,7.40
2012,06,20,04,17,7.40
2012,06,20,04,18,7.40
2012,06,20,04,19,7.40
2012,06,20,04,20,7.40
2012,06,20,04,21,7.40
2012,06,20,04,22,7.40
2012,06,20,04,23,7.40
2012,06,20,04,24,7.40
2012,06,20,04,25,7.40
2012,06,20,04,26,7.40
2012,06,20,04,27,7.40
2012,06,20,04,28,7.40
2012,06,20,04,29,7.30
2012,06,20,04,30,7.30
2012,06,20,04,31,7.30
2012,06,20,04,32,7.30
2012,06,20,04,33,7.30
2012,06,20,04,34,7.30
2012,06,20,04,35,7.30
2012,06,20,04,36,7.30
2012,06,20,04,37,7.30
2012,06,20,04,38,7.30
2012,06,20,04,39,7.30
2012,06,20,04,40,7.30
2012,06,20,04,41,7.30
2012,06,20,04,42,7.30
2012,06,20,04,43,7.30
2012,06,20,04,44,7.30
2012,06,20,04,45,7.30
2012,06,20,04,46,7.30
2012,06,20,04,47,7.30
2012,06,20,04,48,7.30
2012,06,20,04,49,7.30
2012,06,20,04,50,7.30
2012,06,20,04,51,7.30
2012,06,20,04,52,7.30
2012,06,20,04,53,7.30
2012,06,20,04,54,7.30
2012,06,20,04,55,7.30
2012,06,20,04,56,7.30
2012,06,20,04,57,7.30
2012,06,20,04,58,7.30
2012,06,20,04,59,7.30
2012,06,20,05,00,7.30
2012,06,20,05,01,7.30
2012,06,20,05,02,7.30
2012,06,20,05,03,7.30
2012,06,20,05,04,7.20
2012,06,20,05,05,7.10
2012,06,20,05,06,7.10
2012,06,20,05,07,7.10
2012,06,20,05,08,7.00
2012,06,20,05,09,7.00
2012,06,20,05,10,7.00
2012,06,20,05,11,6.90
2012,06,20,05,12,6.90
2012,06,20,05,13,6.80
2012,06,20,05,14,6.80
2012,06,20,05,15,6.80
2012,06,20,05,16,6.80
2012,06,20,05,17,6.80
2012,06,20,05,18,6.80
2012,06,20,05,19,6.80
2012,06,20,05,20,6.80
2012,06,20,05,21,6.80
2012,06,20,05,22,6.80
2012,06,20,05,23,6.70
2012,06,20,05,24,6.70
2012,06,20,05,25,6.80
2012,06,20,05,26,6.80
2012,06,20,05,27,6.80
2012,06,20,05,28,6.80
2012,06,20,05,29,6.80
2012,06,20,05,30,6.80
2012,06,20,05,31,6.80
2012,06,20,05,32,6.80
2012,06,20,05,33,6.90
2012,06,20,05,34,6.90
2012,06,20,05,35,6.90
2012,06,20,05,36,6.90
2012,06,20,05,37,6.90
2012,06,20,05,38,6.90
2012,06,20,05,39,6.90
2012,06,20,05,40,6.90
2012,06,20,05,41,6.90
2012,06,20,05,42,6.90
2012,06,20,05,43,6.90
2012,06,20,05,44,6.90
2012,06,20,05,45,6.90
2012,06,20,05,46,6.90
2012,06,20,05,47,6.90
2012,06,20,05,48,6.90
2012,06,20,05,49,6.90
2012,06,20,05,50,6.90
2012,06,20,05,51,6.90
2012,06,20,05,52,6.90
2012,06,20,05,53,6.90
2012,06,20,05,54,6.90
2012,06,20,05,55,6.90
2012,06,20,05,56,6.90
2012,06,20,05,57,6.90
2012,06,20,05,58,6.90
2012,06,20,05,59,6.90
2012,06,20,06,00,6.90
2012,06,20,06,01,6.90
2012,06,20,06,02,6.90
2012,06,20,06,03,6.90
2012,06,20,06,04,6.90
2012,06,20,06,05,6.90
2012,06,20,06,06,6.90
2012,06,20,06,07,6.90
2012,06,20,06,08,6.90
2012,06,20,06,09,6.90
2012,06,20,06,10,6.90
2012,06,20,06,11,6.90
2012,06,20,06,12,6.90
2012,06,20,06,13,6.90
2012,06,20,06,14,7.00
2012,06,20,06,15,7.00
2012,06,20,06,16,7.10
2012,06,20,06,17,7.20
2012,06,20,06,18,7.30
2012,06,20,06,19,7.30
2012,06,20,06,20,7.40
2012,06,20,06,21,7.50
2012,06,20,06,22,7.50
2012,06,20,06,23,7.60
2012,06,20,06,24,7.70
2012,06,20,06,25,7.80
2012,06,20,06,26,7.90
2012,06,20,06,27,8.00
2012,06,20,06,28,8.10
2012,06,20,06,29,8.20
2012,06,20,06,30,8.30
2012,06,20,06,31,8.40
2012,06,20,06,32,8.50
2012,06,20,06,33,8.50
2012,06,20,06,34,8.60
2012,06,20,06,35,8.70
2012,06,20,06,36,8.70
2012,06,20,06,37,8.80
2012,06,20,06,38,8.80
2012,06,20,06,39,8.90
2012,06,20,06,40,8.90
2012,06,20,06,41,8.90
2012,06,20,06,42,9.00
2012,06,20,06,43,9.00
2012,06,20,06,44,9.10
2012,06,20,06,45,9.10
2012,06,20,06,46,9.20
2012,06,20,06,47,9.20
2012,06,20,06,48,9.30
2012,06,20,06,49,9.40
2012,06,20,06,50,9.40
2012,06,20,06,51,9.50
2012,06,20,06,52,9.60
2012,06,20,06,53,9.70
2012,06,20,06,54,9.70
2012,06,20,06,55,9.80
2012,06,20,06,56,9.90
2012,06,20,06,57,9.90
2012,06,20,06,58,10.00
2012,06,20,06,59,10.10
2012,06,20,07,00,10.10
2012,06,20,07,01,10.20
2012,06,20,07,02,10.20
2012,06,20,07,03,10.30
2012,06,20,07,04,10.40
2012,06,20,07,05,10.40
2012,06,20,07,06,10.50
2012,06,20,07,07,10.60
2012,06,20,07,08,10.70
2012,06,20,07,09,10.70
2012,06,20,07,10,10.80
2012,06,20,07,11,10.90
2012,06,20,07,12,10.90
2012,06,20,07,13,11.00
2012,06,20,07,14,11.10
2012,06,20,07,15,11.10
2012,06,20,07,16,11.20
2012,06,20,07,17,11.30
2012,06,20,07,18,11.40
2012,06,20,07,19,11.40
2012,06,20,07,20,11.60
2012,06,20,07,21,11.60
2012,06,20,07,22,11.60
2012,06,20,07,23,11.60
2012,06,20,07,24,11.60
2012,06,20,07,25,11.70
2012,06,20,07,26,11.80
2012,06,20,07,27,11.90
2012,06,20,07,28,12.00
2012,06,20,07,29,12.00
2012,06,20,07,30,12.00
2012,06,20,07,31,12.10
2012,06,20,07,32,12.10
2012,06,20,07,33,12.10
2012,06,20,07,34,12.10
2012,06,20,07,35,12.10
2012,06,20,07,36,12.10
2012,06,20,07,37,12.20
2012,06,20,07,38,12.20
2012,06,20,07,39,12.20
2012,06,20,07,40,12.30
2012,06,20,07,41,12.30
2012,06,20,07,42,12.30
2012,06,20,07,43,12.40
2012,06,20,07,44,12.40
2012,06,20,07,45,12.30
2012,06,20,07,46,12.10
2012,06,20,07,47,11.90
2012,06,20,07,48,11.80
2012,06,20,07,49,11.70
2012,06,20,07,50,11.60
2012,06,20,07,51,11.50
2012,06,20,07,52,11.40
2012,06,20,07,53,11.30
2012,06,20,07,54,11.30
2012,06,20,07,55,11.30
2012,06,20,07,56,11.30
2012,06,20,07,57,11.20
2012,06,20,07,58,11.10
2012,06,20,07,59,11.10
2012,06,20,08,00,11.10
2012,06,20,08,01,11.10
2012,06,20,08,02,11.10
2012,06,20,08,03,11.00
2012,06,20,08,04,10.90
2012,06,20,08,05,10.90
2012,06,20,08,06,10.90
2012,06,20,08,07,10.90
2012,06,20,08,08,10.90
2012,06,20,08,09,11.10
2012,06,20,08,10,11.10
2012,06,20,08,11,11.10
2012,06,20,08,12,11.10
2012,06,20,08,13,11.20
2012,06,20,08,14,11.30
2012,06,20,08,15,11.30
2012,06,20,08,16,11.40
2012,06,20,08,17,11.50
2012,06,20,08,18,11.60
2012,06,20,08,19,11.60
2012,06,20,08,20,11.70
2012,06,20,08,21,11.80
2012,06,20,08,22,11.80
2012,06,20,08,23,11.90
2012,06,20,08,24,11.90
2012,06,20,08,25,12.00
2012,06,20,08,26,12.10
2012,06,20,08,27,12.20
2012,06,20,08,28,12.20
2012,06,20,08,29,12.30
2012,06,20,08,30,12.30
2012,06,20,08,31,12.30
2012,06,20,08,32,12.30
2012,06,20,08,33,12.30
2012,06,20,08,34,12.40
2012,06,20,08,35,12.40
2012,06,20,08,36,12.40
2012,06,20,08,37,12.50
2012,06,20,08,38,12.50
2012,06,20,08,39,12.50
2012,06,20,08,40,12.50
2012,06,20,08,41,12.60
2012,06,20,08,42,12.60
2012,06,20,08,43,12.70
2012,06,20,08,44,12.70
2012,06,20,08,45,12.70
2012,06,20,08,46,12.80
2012,06,20,08,47,12.80
2012,06,20,08,48,12.80
2012,06,20,08,49,12.80
2012,06,20,08,50,12.80
2012,06,20,08,51,12.90
2012,06,20,08,52,12.90
2012,06,20,08,53,12.90
2012,06,20,08,54,12.90
2012,06,20,08,55,13.00
2012,06,20,08,56,13.00
2012,06,20,08,57,13.00
2012,06,20,08,58,13.00
2012,06,20,08,59,13.00
2012,06,20,09,00,13.00
2012,06,20,09,01,13.10
2012,06,20,09,02,13.10
2012,06,20,09,03,13.10
2012,06,20,09,04,13.10
2012,06,20,09,05,13.20
2012,06,20,09,06,13.20
2012,06,20,09,07,13.20
2012,06,20,09,08,13.20
2012,06,20,09,09,13.20
2012,06,20,09,10,13.20
2012,06,20,09,11,13.30
2012,06,20,09,12,13.30
2012,06,20,09,13,13.30
2012,06,20,09,14,13.30
2012,06,20,09,15,13.30
2012,06,20,09,16,13.30
2012,06,20,09,17,13.30
2012,06,20,09,18,13.30
2012,06,20,09,19,13.30
2012,06,20,09,20,13.30
2012,06,20,09,21,13.40
2012,06,20,09,22,13.40
2012,06,20,09,23,13.40
2012,06,20,09,24,13.30
2012,06,20,09,25,13.20
2012,06,20,09,26,13.00
2012,06,20,09,27,13.00
2012,06,20,09,28,12.90
2012,06,20,09,29,12.90
2012,06,20,09,30,12.80
2012,06,20,09,31,12.80
2012,06,20,09,32,12.80
2012,06,20,09,33,12.80
2012,06,20,09,34,12.80
2012,06,20,09,35,12.80
2012,06,20,09,36,12.80
2012,06,20,09,37,12.80
2012,06,20,09,38,12.70
2012,06,20,09,39,12.80
2012,06,20,09,40,12.80
2012,06,20,09,41,12.90
2012,06,20,09,42,13.00
2012,06,20,09,43,13.00
2012,06,20,09,44,12.90
2012,06,20,09,45,12.90
2012,06,20,09,46,12.80
2012,06,20,09,47,12.80
2012,06,20,09,48,12.80
2012,06,20,09,49,12.80
2012,06,20,09,50,12.80
2012,06,20,09,51,12.80
2012,06,20,09,52,12.80
2012,06,20,09,53,12.80
2012,06,20,09,54,12.80
2012,06,20,09,55,12.80
2012,06,20,09,56,12.90
2012,06,20,09,57,12.90
2012,06,20,09,58,13.00
2012,06,20,09,59,12.90
2012,06,20,10,00,12.90
2012,06,20,10,01,13.00
2012,06,20,10,02,13.00
2012,06,20,10,03,13.00
2012,06,20,10,04,13.00
2012,06,20,10,05,13.00
2012,06,20,10,06,13.00
2012,06,20,10,07,12.90
2012,06,20,10,08,12.90
2012,06,20,10,09,12.80
2012,06,20,10,10,12.90
2012,06,20,10,11,12.90
2012,06,20,10,12,13.00
2012,06,20,10,13,12.90
2012,06,20,10,14,12.90
2012,06,20,10,15,13.00
2012,06,20,10,16,13.00
2012,06,20,10,17,13.00
2012,06,20,10,18,13.00
2012,06,20,10,19,13.00
2012,06,20,10,20,13.10
2012,06,20,10,21,13.20
2012,06,20,10,22,13.20
2012,06,20,10,23,13.30
2012,06,20,10,24,13.30
2012,06,20,10,25,13.30
2012,06,20,10,26,13.30
2012,06,20,10,27,13.30
2012,06,20,10,28,13.30
2012,06,20,10,29,13.30
2012,06,20,10,30,13.30
2012,06,20,10,31,13.30
2012,06,20,10,32,13.30
2012,06,20,10,33,13.30
2012,06,20,10,34,13.30
2012,06,20,10,35,13.20
2012,06,20,10,36,13.30
2012,06,20,10,37,13.20
2012,06,20,10,38,13.20
2012,06,20,10,39,13.10
2012,06,20,10,40,13.20
2012,06,20,10,41,13.20
2012,06,20,10,42,13.20
2012,06,20,10,43,13.30
2012,06,20,10,44,13.30
2012,06,20,10,45,13.20
2012,06,20,10,46,13.20
2012,06,20,10,47,13.30
2012,06,20,10,48,13.20
2012,06,20,10,49,13.20
2012,06,20,10,50,13.20
2012,06,20,10,51,13.20
2012,06,20,10,52,13.20
2012,06,20,10,53,13.30
2012,06,20,10,54,13.30
2012,06,20,10,55,13.30
2012,06,20,10,56,13.40
2012,06,20,10,57,13.40
2012,06,20,10,58,13.50
2012,06,20,10,59,13.50
2012,06,20,11,00,13.50
2012,06,20,11,01,13.50
2012,06,20,11,02,13.40
2012,06,20,11,03,13.30
2012,06,20,11,04,13.30
2012,06,20,11,05,13.20
2012,06,20,11,06,13.10
2012,06,20,11,07,13.00
2012,06,20,11,08,13.10
2012,06,20,11,09,13.00
2012,06,20,11,10,12.90
2012,06,20,11,11,12.80
2012,06,20,11,12,12.80
2012,06,20,11,13,12.80
2012,06,20,11,14,12.80
2012,06,20,11,15,12.80
2012,06,20,11,16,12.70
2012,06,20,11,17,12.60
2012,06,20,11,18,12.70
2012,06,20,11,19,12.80
2012,06,20,11,20,12.80
2012,06,20,11,21,12.80
2012,06,20,11,22,12.90
2012,06,20,11,23,13.10
2012,06,20,11,24,13.10
2012,06,20,11,25,13.10
2012,06,20,11,26,13.10
2012,06,20,11,27,13.00
2012,06,20,11,28,12.90
2012,06,20,11,29,12.80
2012,06,20,11,30,12.90
2012,06,20,11,31,12.90
2012,06,20,11,32,12.80
2012,06,20,11,33,12.80
2012,06,20,11,34,12.90
2012,06,20,11,35,13.00
2012,06,20,11,36,13.00
2012,06,20,11,37,13.00
2012,06,20,11,38,12.90
2012,06,20,11,39,13.00
2012,06,20,11,40,13.10
2012,06,20,11,41,13.20
2012,06,20,11,42,13.10
2012,06,20,11,43,13.00
2012,06,20,11,44,13.00
2012,06,20,11,45,13.00
2012,06,20,11,46,13.00
2012,06,20,11,47,12.90
2012,06,20,11,48,12.80
2012,06,20,11,49,12.80
2012,06,20,11,50,12.80
2012,06,20,11,51,12.70
2012,06,20,11,52,12.50
2012,06,20,11,53,12.30
2012,06,20,11,54,12.30
2012,06,20,11,55,12.30
2012,06,20,11,56,12.20
2012,06,20,11,57,12.20
2012,06,20,11,58,12.20
2012,06,20,11,59,12.30
2012,06,20,12,00,12.30
2012,06,20,12,01,12.30
2012,06,20,12,02,12.30
2012,06,20,12,03,12.30
2012,06,20,12,04,12.30
2012,06,20,12,05,12.30
2012,06,20,12,06,12.50
2012,06,20,12,07,12.50
2012,06,20,12,08,12.60
2012,06,20,12,09,12.70
2012,06,20,12,10,12.60
2012,06,20,12,11,12.70
2012,06,20,12,12,12.90
2012,06,20,12,13,12.90
2012,06,20,12,14,13.00
2012,06,20,12,15,13.10
2012,06,20,12,16,13.20
2012,06,20,12,17,13.10
2012,06,20,12,18,13.10
2012,06,20,12,19,13.20
2012,06,20,12,20,13.30
2012,06,20,12,21,13.30
2012,06,20,12,22,13.30
2012,06,20,12,23,13.30
2012,06,20,12,24,13.30
2012,06,20,12,25,13.30
2012,06,20,12,26,13.40
2012,06,20,12,27,13.50
2012,06,20,12,28,13.60
2012,06,20,12,29,13.60
2012,06,20,12,30,13.50
2012,06,20,12,31,13.50
2012,06,20,12,32,13.50
2012,06,20,12,33,13.50
2012,06,20,12,34,13.50
2012,06,20,12,35,13.60
2012,06,20,12,36,13.60
2012,06,20,12,37,13.70
2012,06,20,12,38,13.60
2012,06,20,12,39,13.60
2012,06,20,12,40,13.60
2012,06,20,12,41,13.70
2012,06,20,12,42,13.70
2012,06,20,12,43,13.70
2012,06,20,12,44,13.70
2012,06,20,12,45,13.90
2012,06,20,12,46,14.00
2012,06,20,12,47,14.10
2012,06,20,12,48,14.20
2012,06,20,12,49,14.20
2012,06,20,12,50,14.20
2012,06,20,12,51,14.30
2012,06,20,12,52,14.40
2012,06,20,12,53,14.50
2012,06,20,12,54,14.50
2012,06,20,12,55,14.50
2012,06,20,12,56,14.40
2012,06,20,12,57,14.40
2012,06,20,12,58,14.30
2012,06,20,12,59,14.40
2012,06,20,13,00,14.50
2012,06,20,13,01,14.50
2012,06,20,13,02,14.50
2012,06,20,13,03,14.30
2012,06,20,13,04,14.20
2012,06,20,13,05,14.20
2012,06,20,13,06,14.20
2012,06,20,13,07,14.30
2012,06,20,13,08,14.30
2012,06,20,13,09,14.30
2012,06,20,13,10,14.50
2012,06,20,13,11,14.60
2012,06,20,13,12,14.70
2012,06,20,13,13,14.80
2012,06,20,13,14,14.90
2012,06,20,13,15,14.90
2012,06,20,13,16,14.80
2012,06,20,13,17,14.70
2012,06,20,13,18,14.80
2012,06,20,13,19,14.80
2012,06,20,13,20,14.80
2012,06,20,13,21,14.80
2012,06,20,13,22,14.90
2012,06,20,13,23,14.90
2012,06,20,13,24,15.00
2012,06,20,13,25,15.10
2012,06,20,13,26,15.20
2012,06,20,13,27,15.20
2012,06,20,13,28,15.20
2012,06,20,13,29,15.10
2012,06,20,13,30,15.10
2012,06,20,13,31,15.10
2012,06,20,13,32,15.00
2012,06,20,13,33,15.00
2012,06,20,13,34,15.10
2012,06,20,13,35,15.20
2012,06,20,13,36,15.20
2012,06,20,13,37,15.20
2012,06,20,13,38,15.30
2012,06,20,13,39,15.30
2012,06,20,13,40,15.30
2012,06,20,13,41,15.30
2012,06,20,13,42,15.20
2012,06,20,13,43,15.20
2012,06,20,13,44,15.20
2012,06,20,13,45,15.10
2012,06,20,13,46,15.20
2012,06,20,13,47,15.30
2012,06,20,13,48,15.40
2012,06,20,13,49,15.40
2012,06,20,13,50,15.40
2012,06,20,13,51,15.40
2012,06,20,13,52,15.40
2012,06,20,13,53,15.40
2012,06,20,13,54,15.50
2012,06,20,13,55,15.60
2012,06,20,13,56,15.60
2012,06,20,13,57,15.60
2012,06,20,13,58,15.60
2012,06,20,13,59,15.80
2012,06,20,14,00,15.80
2012,06,20,14,01,15.90
2012,06,20,14,02,15.90
2012,06,20,14,03,15.80
2012,06,20,14,04,15.80
2012,06,20,14,05,15.80
2012,06,20,14,06,15.80
2012,06,20,14,07,15.90
2012,06,20,14,08,15.90
2012,06,20,14,09,16.00
2012,06,20,14,10,16.00
2012,06,20,14,11,16.00
2012,06,20,14,12,16.00
2012,06,20,14,13,15.90
2012,06,20,14,14,16.10
2012,06,20,14,15,16.10
2012,06,20,14,16,16.10
2012,06,20,14,17,16.20
2012,06,20,14,18,16.30
2012,06,20,14,19,16.30
2012,06,20,14,20,16.30
2012,06,20,14,21,16.20
2012,06,20,14,22,16.20
2012,06,20,14,23,16.20
2012,06,20,14,24,16.20
2012,06,20,14,25,16.20
2012,06,20,14,26,16.20
2012,06,20,14,27,16.30
2012,06,20,14,28,16.20
2012,06,20,14,29,16.20
2012,06,20,14,30,16.20
2012,06,20,14,31,16.20
2012,06,20,14,32,16.20
2012,06,20,14,33,16.20
2012,06,20,14,34,16.30
2012,06,20,14,35,16.30
2012,06,20,14,36,16.20
2012,06,20,14,37,16.10
2012,06,20,14,38,15.90
2012,06,20,14,39,15.80
2012,06,20,14,40,15.60
2012,06,20,14,41,15.50
2012,06,20,14,42,15.40
2012,06,20,14,43,15.40
2012,06,20,14,44,15.30
2012,06,20,14,45,15.30
2012,06,20,14,46,15.30
2012,06,20,14,47,15.40
2012,06,20,14,48,15.50
2012,06,20,14,49,15.60
2012,06,20,14,50,15.60
2012,06,20,14,51,15.60
2012,06,20,14,52,15.50
2012,06,20,14,53,15.50
2012,06,20,14,54,15.50
2012,06,20,14,55,15.50
2012,06,20,14,56,15.50
2012,06,20,14,57,15.50
2012,06,20,14,58,15.50
2012,06,20,14,59,15.50
2012,06,20,15,00,15.50
2012,06,20,15,01,15.50
2012,06,20,15,02,15.50
2012,06,20,15,03,15.50
2012,06,20,15,04,15.50
2012,06,20,15,05,15.50
2012,06,20,15,06,15.40
2012,06,20,15,07,15.40
2012,06,20,15,08,15.40
2012,06,20,15,09,15.40
2012,06,20,15,10,15.30
2012,06,20,15,11,15.30
2012,06,20,15,12,15.30
2012,06,20,15,13,15.30
2012,06,20,15,14,15.30
2012,06,20,15,15,15.30
2012,06,20,15,16,15.30
2012,06,20,15,17,15.30
2012,06,20,15,18,15.30
2012,06,20,15,19,15.40
2012,06,20,15,20,15.40
2012,06,20,15,21,15.40
2012,06,20,15,22,15.40
2012,06,20,15,23,15.40
2012,06,20,15,24,15.40
2012,06,20,15,25,15.40
2012,06,20,15,26,15.40
2012,06,20,15,27,15.40
2012,06,20,15,28,15.40
2012,06,20,15,29,15.40
2012,06,20,15,30,15.50
2012,06,20,15,31,15.50
2012,06,20,15,32,15.60
2012,06,20,15,33,15.70
2012,06,20,15,34,15.80
2012,06,20,15,35,15.80
2012,06,20,15,36,15.80
2012,06,20,15,37,15.80
2012,06,20,15,38,15.80
2012,06,20,15,39,15.80
2012,06,20,15,40,15.90
2012,06,20,15,41,16.00
2012,06,20,15,42,16.10
2012,06,20,15,43,16.10
2012,06,20,15,44,16.20
2012,06,20,15,45,16.20
2012,06,20,15,46,16.20
2012,06,20,15,47,16.30
2012,06,20,15,48,16.40
2012,06,20,15,49,16.40
2012,06,20,15,50,16.50
2012,06,20,15,51,16.60
2012,06,20,15,52,16.70
2012,06,20,15,53,16.80
2012,06,20,15,54,16.80
2012,06,20,15,55,16.80
2012,06,20,15,56,16.80
2012,06,20,15,57,16.80
2012,06,20,15,58,16.80
2012,06,20,15,59,16.80
2012,06,20,16,00,16.80
2012,06,20,16,01,16.70
2012,06,20,16,02,16.70
2012,06,20,16,03,16.70
2012,06,20,16,04,16.70
2012,06,20,16,05,16.70
2012,06,20,16,06,16.80
2012,06,20,16,07,16.70
2012,06,20,16,08,16.70
2012,06,20,16,09,16.70
2012,06,20,16,10,16.70
2012,06,20,16,11,16.70
2012,06,20,16,12,16.70
2012,06,20,16,13,16.70
2012,06,20,16,14,16.70
2012,06,20,16,15,16.70
2012,06,20,16,16,16.70
2012,06,20,16,17,16.80
2012,06,20,16,18,16.90
2012,06,20,16,19,16.90
2012,06,20,16,20,17.00
2012,06,20,16,21,17.00
2012,06,20,16,22,17.00
2012,06,20,16,23,17.00
2012,06,20,16,24,17.10
2012,06,20,16,25,17.10
2012,06,20,16,26,17.20
2012,06,20,16,27,17.40
2012,06,20,16,28,17.60
2012,06,20,16,29,17.80
2012,06,20,16,30,17.90
2012,06,20,16,31,17.90
2012,06,20,16,32,18.10
2012,06,20,16,33,18.20
2012,06,20,16,34,18.30
2012,06,20,16,35,18.30
2012,06,20,16,36,18.30
2012,06,20,16,37,18.20
2012,06,20,16,38,18.20
2012,06,20,16,39,18.10
2012,06,20,16,40,18.10
2012,06,20,16,41,18.00
2012,06,20,16,42,18.00
2012,06,20,16,43,18.10
2012,06,20,16,44,18.00
2012,06,20,16,45,17.90
2012,06,20,16,46,17.80
2012,06,20,16,47,17.70
2012,06,20,16,48,17.50
2012,06,20,16,49,17.50
2012,06,20,16,50,17.50
2012,06,20,16,51,17.40
2012,06,20,16,52,17.40
2012,06,20,16,53,17.40
2012,06,20,16,54,17.50
2012,06,20,16,55,17.50
2012,06,20,16,56,17.50
2012,06,20,16,57,17.60
2012,06,20,16,58,17.70
2012,06,20,16,59,17.70
2012,06,20,17,00,17.70
2012,06,20,17,01,17.70
2012,06,20,17,02,17.70
2012,06,20,17,03,17.60
2012,06,20,17,04,17.50
2012,06,20,17,05,17.50
2012,06,20,17,06,17.50
2012,06,20,17,07,17.50
2012,06,20,17,08,17.50
2012,06,20,17,09,17.50
2012,06,20,17,10,17.50
2012,06,20,17,11,17.50
2012,06,20,17,12,17.60
2012,06,20,17,13,17.60
2012,06,20,17,14,17.70
2012,06,20,17,15,17.80
2012,06,20,17,16,17.90
2012,06,20,17,17,17.90
2012,06,20,17,18,17.90
2012,06,20,17,19,17.90
2012,06,20,17,20,17.90
2012,06,20,17,21,17.90
2012,06,20,17,22,17.90
2012,06,20,17,23,17.80
2012,06,20,17,24,17.80
2012,06,20,17,25,17.70
2012,06,20,17,26,17.60
2012,06,20,17,27,17.60
2012,06,20,17,28,17.70
2012,06,20,17,29,17.80
2012,06,20,17,30,17.80
2012,06,20,17,31,17.80
2012,06,20,17,32,17.60
2012,06,20,17,33,17.40
2012,06,20,17,34,17.30
2012,06,20,17,35,17.30
2012,06,20,17,36,17.30
2012,06,20,17,37,17.30